Time,TemperatureF,DewpointF,PressureIn,WindDirection,WindDirectionDegrees,WindSpeedMPH,WindSpeedGustMPH,Humidity,HourlyPrecipIn,Conditions,Clouds,dailyrainin,SoftwareType,DateUTC
2013-06-18 00:02:00,61.0,60.0,30.04,North,359,0.0,0.0,96,0.00,,,-99.99,,2013-06-18 04:02:00,
2013-06-18 00:12:00,61.0,60.0,30.04,North,359,0.0,0.0,96,0.00,,,-99.99,,2013-06-18 04:12:00,
2013-06-18 00:23:00,61.0,60.0,30.04,North,359,0.0,0.0,96,0.00,,,-99.99,,2013-06-18 04:23:00,
2013-06-18 00:34:00,61.0,60.0,30.04,North,359,0.0,0.0,96,0.00,,,-99.99,,2013-06-18 04:34:00,
2013-06-18 00:43:00,61.0,60.0,30.02,North,359,0.0,0.0,96,0.00,,,-99.99,,2013-06-18 04:43:00,
2013-06-18 00:54:00,61.0,60.0,30.02,North,359,0.0,0.0,96,0.00,,,-99.99,,2013-06-18 04:54:00,
2013-06-18 01:02:00,61.0,60.0,30.02,North,359,0.0,0.0,96,0.00,,,-99.99,,2013-06-18 05:02:00,
2013-06-18 01:12:00,61.0,60.0,30.02,North,359,0.0,0.0,96,0.00,,,-99.99,,2013-06-18 05:12:00,
2013-06-18 01:22:00,61.0,60.0,30.02,North,359,0.0,0.0,96,0.00,,,-99.99,,2013-06-18 05:22:00,
2013-06-18 01:34:00,60.0,59.0,30.01,North,359,0.0,0.0,96,0.00,,,-99.99,,2013-06-18 05:34:00,
2013-06-18 01:43:00,60.0,59.0,30.01,North,359,0.0,0.0,96,0.00,,,-99.99,,2013-06-18 05:43:00,
2013-06-18 01:53:00,60.0,59.0,30.01,North,359,0.0,0.0,96,0.00,,,-99.99,,2013-06-18 05:53:00,
2013-06-18 02:02:00,60.0,59.0,29.99,North,359,0.0,0.0,96,0.00,,,-99.99,,2013-06-18 06:02:00,
2013-06-18 02:11:00,60.0,59.0,29.98,North,359,0.0,0.0,96,0.00,,,-99.99,,2013-06-18 06:11:00,
2013-06-18 02:23:00,60.0,59.0,29.98,North,359,0.0,0.0,96,0.00,,,-99.99,,2013-06-18 06:23:00,
2013-06-18 02:32:00,60.0,59.0,29.98,North,359,0.0,0.0,96,0.00,,,-99.99,,2013-06-18 06:32:00,
2013-06-18 02:43:00,60.0,59.0,29.96,North,359,0.0,0.0,96,0.00,,,-99.99,,2013-06-18 06:43:00,
2013-06-18 02:52:00,60.0,59.0,29.96,North,359,0.0,0.0,96,0.00,,,-99.99,,2013-06-18 06:52:00,
2013-06-18 03:02:00,60.0,59.0,29.96,North,359,0.0,0.0,96,0.00,,,-99.99,,2013-06-18 07:02:00,
2013-06-18 03:12:00,60.0,59.0,29.96,North,359,0.0,0.0,96,0.00,,,-99.99,,2013-06-18 07:12:00,
2013-06-18 03:22:00,60.0,59.0,29.96,North,359,0.0,0.0,96,0.00,,,-99.99,,2013-06-18 07:22:00,
2013-06-18 03:33:00,60.0,59.0,29.95,North,359,0.0,0.0,96,0.00,,,-99.99,,2013-06-18 07:33:00,
2013-06-18 03:43:00,60.0,59.0,29.95,North,359,0.0,0.0,96,0.00,,,-99.99,,2013-06-18 07:43:00,
2013-06-18 03:53:00,60.0,59.0,29.95,North,359,0.0,0.0,96,0.00,,,-99.99,,2013-06-18 07:53:00,
2013-06-18 04:02:00,60.0,59.0,29.93,North,359,0.0,0.0,95,0.00,,,-99.99,,2013-06-18 08:02:00,
2013-06-18 04:11:00,60.0,59.0,29.93,North,359,0.0,0.0,95,0.00,,,-99.99,,2013-06-18 08:11:00,
2013-06-18 04:23:00,60.0,59.0,29.93,North,359,0.0,0.0,95,0.00,,,-99.99,,2013-06-18 08:23:00,
2013-06-18 04:33:00,60.0,59.0,29.93,North,359,0.0,0.0,95,0.00,,,-99.99,,2013-06-18 08:33:00,
2013-06-18 04:43:00,60.0,59.0,29.93,North,359,0.0,0.0,95,0.00,,,-99.99,,2013-06-18 08:43:00,
2013-06-18 04:52:00,60.0,59.0,29.93,North,359,0.0,0.0,95,0.00,,,-99.99,,2013-06-18 08:52:00,
2013-06-18 05:02:00,60.0,58.0,29.93,North,359,0.0,0.0,94,0.00,,,-99.99,,2013-06-18 09:02:00,
2013-06-18 05:12:00,60.0,58.0,29.93,North,359,0.0,0.0,94,0.00,,,-99.99,,2013-06-18 09:12:00,
2013-06-18 05:22:00,60.0,58.0,29.93,North,359,0.0,0.0,94,0.00,,,-99.99,,2013-06-18 09:22:00,
2013-06-18 05:34:00,60.0,58.0,29.93,North,359,0.0,0.0,94,0.00,,,-99.99,,2013-06-18 09:34:00,
2013-06-18 05:43:00,60.0,58.0,29.93,North,359,0.0,0.0,94,0.00,,,-99.99,,2013-06-18 09:43:00,
2013-06-18 05:53:00,60.0,58.0,29.93,North,359,0.0,0.0,94,0.00,,,-99.99,,2013-06-18 09:53:00,
2013-06-18 06:02:00,59.0,57.0,29.93,North,359,0.0,0.0,94,0.00,,,-99.99,,2013-06-18 10:02:00,
2013-06-18 06:11:00,59.0,57.0,29.93,North,359,0.0,0.0,94,0.00,,,-99.99,,2013-06-18 10:11:00,
2013-06-18 06:22:00,59.0,57.0,29.94,North,359,0.0,0.0,93,0.00,,,-99.99,,2013-06-18 10:22:00,
2013-06-18 06:33:00,59.0,57.0,29.94,North,359,0.0,0.0,93,0.00,,,-99.99,,2013-06-18 10:33:00,
2013-06-18 06:43:00,59.0,57.0,29.94,North,359,0.0,0.0,93,0.00,,,-99.99,,2013-06-18 10:43:00,
2013-06-18 06:53:00,59.0,57.0,29.94,North,359,0.0,0.0,93,0.00,,,-99.99,,2013-06-18 10:53:00,
2013-06-18 07:02:00,59.0,57.0,29.94,North,359,0.0,0.0,93,0.00,,,-99.99,,2013-06-18 11:02:00,
2013-06-18 07:11:00,59.0,57.0,29.94,North,359,0.0,0.0,93,0.00,,,-99.99,,2013-06-18 11:11:00,
2013-06-18 07:22:00,59.0,57.0,29.94,North,359,0.0,0.0,92,0.00,,,-99.99,,2013-06-18 11:22:00,
2013-06-18 07:32:00,59.0,57.0,29.94,North,359,0.0,0.0,92,0.00,,,-99.99,,2013-06-18 11:32:00,
2013-06-18 07:43:00,59.0,56.0,29.94,North,359,0.0,0.0,89,0.00,,,-99.99,,2013-06-18 11:43:00,
2013-06-18 07:52:00,59.0,56.0,29.94,North,359,0.0,0.0,89,0.00,,,-99.99,,2013-06-18 11:52:00,
2013-06-18 08:01:00,59.0,56.0,29.94,North,359,0.0,0.0,89,0.00,,,-99.99,,2013-06-18 12:01:00,
2013-06-18 08:11:00,59.0,55.0,29.95,North,359,0.0,0.0,88,0.00,,,-99.99,,2013-06-18 12:11:00,
2013-06-18 08:22:00,59.0,55.0,29.95,North,359,0.0,0.0,88,0.00,,,-99.99,,2013-06-18 12:22:00,
2013-06-18 08:33:00,60.0,56.0,29.94,North,359,0.0,0.0,88,0.00,,,-99.99,,2013-06-18 12:33:00,
2013-06-18 08:43:00,60.0,56.0,29.94,North,359,0.0,0.0,88,0.00,,,-99.99,,2013-06-18 12:43:00,
2013-06-18 08:52:00,60.0,56.0,29.94,North,359,0.0,0.0,88,0.00,,,-99.99,,2013-06-18 12:52:00,
2013-06-18 09:02:00,60.0,56.0,29.94,North,359,0.0,0.0,88,0.00,,,-99.99,,2013-06-18 13:02:00,
2013-06-18 09:12:00,60.0,56.0,29.94,North,359,0.0,0.0,87,0.00,,,-99.99,,2013-06-18 13:12:00,
2013-06-18 09:22:00,60.0,56.0,29.94,North,359,0.0,0.0,87,0.00,,,-99.99,,2013-06-18 13:22:00,
2013-06-18 09:33:00,60.0,56.0,29.94,North,359,0.0,0.0,87,0.00,,,-99.99,,2013-06-18 13:33:00,
2013-06-18 09:43:00,61.0,57.0,29.95,North,359,0.0,0.0,87,0.00,,,-99.99,,2013-06-18 13:43:00,
2013-06-18 09:53:00,61.0,57.0,29.95,North,359,0.0,0.0,87,0.00,,,-99.99,,2013-06-18 13:53:00,
2013-06-18 10:02:00,61.0,58.0,29.96,North,359,0.0,0.0,91,0.00,,,-99.99,,2013-06-18 14:02:00,
2013-06-18 10:11:00,61.0,59.0,29.95,North,359,0.0,0.0,94,0.00,,,-99.99,,2013-06-18 14:11:00,
2013-06-18 10:22:00,61.0,60.0,29.94,North,359,0.0,0.0,95,0.00,,,-99.99,,2013-06-18 14:22:00,
2013-06-18 10:33:00,61.0,60.0,29.94,North,359,0.0,0.0,95,0.00,,,-99.99,,2013-06-18 14:33:00,
2013-06-18 10:43:00,61.0,60.0,29.93,North,359,0.0,0.0,95,0.00,,,-99.99,,2013-06-18 14:43:00,
2013-06-18 10:53:00,61.0,60.0,29.93,North,359,0.0,0.0,95,0.00,,,-99.99,,2013-06-18 14:53:00,
2013-06-18 11:02:00,61.0,60.0,29.93,North,359,0.0,0.0,95,0.00,,,-99.99,,2013-06-18 15:02:00,
2013-06-18 11:11:00,61.0,60.0,29.93,North,359,0.0,0.0,96,0.01,,,-99.99,,2013-06-18 15:11:00,
2013-06-18 11:22:00,61.0,60.0,29.93,North,359,0.0,0.0,96,0.01,,,-99.99,,2013-06-18 15:22:00,
2013-06-18 11:33:00,61.0,60.0,29.93,North,359,0.0,0.0,96,0.02,,,-99.99,,2013-06-18 15:33:00,
2013-06-18 11:43:00,61.0,60.0,29.93,North,359,0.0,0.0,96,0.02,,,-99.99,,2013-06-18 15:43:00,
2013-06-18 11:53:00,61.0,60.0,29.93,North,359,0.0,0.0,96,0.02,,,-99.99,,2013-06-18 15:53:00,
2013-06-18 12:01:00,61.0,60.0,29.92,North,359,0.0,0.0,96,0.04,,,-99.99,,2013-06-18 16:01:00,
2013-06-18 12:11:00,61.0,60.0,29.92,North,359,0.0,0.0,96,0.04,,,-99.99,,2013-06-18 16:11:00,
2013-06-18 12:23:00,62.0,61.0,29.93,North,359,0.0,0.0,96,0.03,,,-99.99,,2013-06-18 16:23:00,
2013-06-18 12:33:00,62.0,61.0,29.93,North,359,0.0,0.0,96,0.03,,,-99.99,,2013-06-18 16:33:00,
2013-06-18 12:43:00,63.0,62.0,29.91,North,359,0.0,0.0,95,0.01,,,-99.99,,2013-06-18 16:43:00,
2013-06-18 12:53:00,63.0,62.0,29.91,North,359,0.0,0.0,95,0.01,,,-99.99,,2013-06-18 16:53:00,
2013-06-18 13:02:00,64.0,63.0,29.90,North,359,0.0,0.0,95,0.00,,,-99.99,,2013-06-18 17:02:00,
2013-06-18 13:12:00,64.0,63.0,29.90,North,359,0.0,0.0,95,0.00,,,-99.99,,2013-06-18 17:12:00,
2013-06-18 13:22:00,64.0,63.0,29.90,North,359,0.0,0.0,95,0.00,,,-99.99,,2013-06-18 17:22:00,
2013-06-18 13:33:00,64.0,63.0,29.90,North,359,0.0,0.0,95,0.00,,,-99.99,,2013-06-18 17:33:00,
2013-06-18 13:43:00,63.0,62.0,29.90,North,359,0.0,0.0,96,0.00,,,-99.99,,2013-06-18 17:43:00,
2013-06-18 13:53:00,62.0,61.0,29.90,North,359,0.0,0.0,97,0.00,,,-99.99,,2013-06-18 17:53:00,
2013-06-18 14:02:00,62.0,61.0,29.90,North,359,0.0,0.0,97,0.01,,,-99.99,,2013-06-18 18:02:00,
2013-06-18 14:12:00,62.0,61.0,29.90,North,359,0.0,0.0,97,0.01,,,-99.99,,2013-06-18 18:12:00,
2013-06-18 14:22:00,62.0,61.0,29.90,North,359,0.0,0.0,97,0.01,,,-99.99,,2013-06-18 18:22:00,
2013-06-18 14:33:00,62.0,61.0,29.90,North,359,0.0,0.0,97,0.01,,,-99.99,,2013-06-18 18:33:00,
2013-06-18 14:42:00,62.0,61.0,29.90,North,359,0.0,0.0,97,0.01,,,-99.99,,2013-06-18 18:42:00,
2013-06-18 14:53:00,61.0,60.0,29.89,North,359,0.0,0.0,96,0.07,,,-99.99,,2013-06-18 18:53:00,
2013-06-18 15:02:00,61.0,60.0,29.89,North,359,0.0,0.0,96,0.09,,,-99.99,,2013-06-18 19:02:00,
2013-06-18 15:12:00,62.0,61.0,29.89,North,359,0.0,0.0,96,0.09,,,-99.99,,2013-06-18 19:12:00,
2013-06-18 15:22:00,62.0,61.0,29.89,North,359,0.0,0.0,96,0.07,,,-99.99,,2013-06-18 19:22:00,
2013-06-18 15:33:00,62.0,61.0,29.89,North,359,0.0,0.0,96,0.07,,,-99.99,,2013-06-18 19:33:00,
2013-06-18 15:43:00,62.0,61.0,29.88,North,359,0.0,0.0,95,0.07,,,-99.99,,2013-06-18 19:43:00,
2013-06-18 15:52:00,62.0,61.0,29.88,North,359,0.0,0.0,95,0.05,,,-99.99,,2013-06-18 19:52:00,
2013-06-18 16:02:00,62.0,61.0,29.88,North,359,0.0,0.0,95,0.05,,,-99.99,,2013-06-18 20:02:00,
2013-06-18 16:11:00,62.0,61.0,29.88,North,359,0.0,0.0,95,0.05,,,-99.99,,2013-06-18 20:11:00,
2013-06-18 16:23:00,61.0,60.0,29.89,North,359,0.0,0.0,95,0.13,,,-99.99,,2013-06-18 20:23:00,
2013-06-18 16:33:00,61.0,60.0,29.89,North,359,0.0,0.0,95,0.13,,,-99.99,,2013-06-18 20:33:00,
2013-06-18 16:43:00,60.0,59.0,29.89,North,359,0.0,0.0,95,0.14,,,-99.99,,2013-06-18 20:43:00,
2013-06-18 16:52:00,60.0,59.0,29.89,North,359,0.0,0.0,95,0.14,,,-99.99,,2013-06-18 20:52:00,
2013-06-18 17:02:00,60.0,59.0,29.89,North,359,0.0,0.0,95,0.14,,,-99.99,,2013-06-18 21:02:00,
2013-06-18 17:12:00,60.0,59.0,29.89,North,359,0.0,0.0,95,0.15,,,-99.99,,2013-06-18 21:12:00,
2013-06-18 17:23:00,61.0,60.0,29.88,North,359,0.0,0.0,95,0.08,,,-99.99,,2013-06-18 21:23:00,
2013-06-18 17:33:00,62.0,61.0,29.88,North,359,0.0,0.0,95,0.05,,,-99.99,,2013-06-18 21:33:00,
2013-06-18 17:43:00,62.0,61.0,29.88,North,359,0.0,0.0,95,0.05,,,-99.99,,2013-06-18 21:43:00,
2013-06-18 17:52:00,62.0,60.0,29.88,North,359,0.0,0.0,94,0.00,,,-99.99,,2013-06-18 21:52:00,
2013-06-18 18:02:00,62.0,60.0,29.88,North,359,0.0,0.0,94,0.00,,,-99.99,,2013-06-18 22:02:00,
2013-06-18 18:11:00,62.0,61.0,29.89,North,359,0.0,0.0,95,0.00,,,-99.99,,2013-06-18 22:11:00,
2013-06-18 18:22:00,61.0,60.0,29.89,North,359,0.0,0.0,95,0.00,,,-99.99,,2013-06-18 22:22:00,
2013-06-18 18:34:00,61.0,60.0,29.89,North,359,0.0,0.0,95,0.00,,,-99.99,,2013-06-18 22:34:00,
2013-06-18 18:43:00,61.0,60.0,29.89,North,359,0.0,0.0,95,0.00,,,-99.99,,2013-06-18 22:43:00,
2013-06-18 18:53:00,61.0,60.0,29.89,North,359,0.0,0.0,95,0.00,,,-99.99,,2013-06-18 22:53:00,
2013-06-18 19:02:00,61.0,60.0,29.89,North,359,0.0,0.0,95,0.00,,,-99.99,,2013-06-18 23:02:00,
2013-06-18 19:12:00,61.0,60.0,29.88,North,359,0.0,0.0,96,0.00,,,-99.99,,2013-06-18 23:12:00,
2013-06-18 19:23:00,61.0,60.0,29.88,North,359,0.0,0.0,96,0.00,,,-99.99,,2013-06-18 23:23:00,
2013-06-18 19:37:00,59.0,58.0,29.89,North,359,0.0,0.0,96,0.00,,,-99.99,,2013-06-18 23:37:00,
2013-06-18 19:46:00,59.0,58.0,29.90,North,359,0.0,0.0,96,0.00,,,-99.99,,2013-06-18 23:46:00,
2013-06-18 19:53:00,59.0,58.0,29.90,North,359,0.0,0.0,96,0.00,,,-99.99,,2013-06-18 23:53:00,
2013-06-18 20:02:00,59.0,58.0,29.90,North,359,0.0,0.0,96,0.00,,,-99.99,,2013-06-19 00:02:00,
2013-06-18 20:12:00,58.0,57.0,29.90,North,359,0.0,0.0,97,0.00,,,-99.99,,2013-06-19 00:12:00,
2013-06-18 20:22:00,58.0,57.0,29.90,North,359,0.0,0.0,97,0.00,,,-99.99,,2013-06-19 00:22:00,
2013-06-18 20:33:00,57.0,56.0,29.91,North,359,0.0,0.0,97,0.00,,,-99.99,,2013-06-19 00:33:00,
2013-06-18 20:43:00,57.0,56.0,29.91,North,359,0.0,0.0,97,0.00,,,-99.99,,2013-06-19 00:43:00,
2013-06-18 20:53:00,57.0,56.0,29.91,North,359,0.0,0.0,97,0.00,,,-99.99,,2013-06-19 00:53:00,
2013-06-18 21:01:00,57.0,56.0,29.91,North,359,0.0,0.0,97,0.00,,,-99.99,,2013-06-19 01:01:00,
2013-06-18 21:11:00,57.0,56.0,29.91,North,359,0.0,0.0,97,0.00,,,-99.99,,2013-06-19 01:11:00,
2013-06-18 21:22:00,56.0,55.0,29.92,North,359,0.0,0.0,97,0.00,,,-99.99,,2013-06-19 01:22:00,
2013-06-18 21:32:00,56.0,55.0,29.92,North,359,0.0,0.0,97,0.00,,,-99.99,,2013-06-19 01:32:00,
2013-06-18 21:43:00,56.0,55.0,29.93,North,359,0.0,0.0,97,0.00,,,-99.99,,2013-06-19 01:43:00,
2013-06-18 21:53:00,56.0,55.0,29.93,North,359,0.0,0.0,97,0.00,,,-99.99,,2013-06-19 01:53:00,
2013-06-18 22:01:00,56.0,55.0,29.93,North,359,0.0,0.0,97,0.00,,,-99.99,,2013-06-19 02:01:00,
2013-06-18 22:11:00,56.0,55.0,29.93,North,359,0.0,0.0,97,0.00,,,-99.99,,2013-06-19 02:11:00,
2013-06-18 22:21:00,56.0,55.0,29.93,North,359,0.0,0.0,97,0.00,,,-99.99,,2013-06-19 02:21:00,
2013-06-18 22:32:00,56.0,55.0,29.93,North,359,0.0,0.0,97,0.00,,,-99.99,,2013-06-19 02:32:00,
2013-06-18 22:43:00,55.0,54.0,29.96,North,359,0.0,0.0,96,0.00,,,-99.99,,2013-06-19 02:43:00,
2013-06-18 22:52:00,55.0,54.0,29.96,North,359,0.0,0.0,96,0.00,,,-99.99,,2013-06-19 02:52:00,
2013-06-18 23:01:00,55.0,54.0,29.96,North,359,0.0,0.0,96,0.00,,,-99.99,,2013-06-19 03:01:00,
2013-06-18 23:11:00,55.0,54.0,29.96,North,359,0.0,0.0,96,0.00,,,-99.99,,2013-06-19 03:11:00,
2013-06-18 23:22:00,55.0,54.0,29.97,North,359,0.0,0.0,96,0.00,,,-99.99,,2013-06-19 03:22:00,
2013-06-18 23:33:00,55.0,54.0,29.97,North,359,0.0,0.0,96,0.00,,,-99.99,,2013-06-19 03:33:00,
2013-06-18 23:42:00,55.0,54.0,29.98,North,359,0.0,0.0,96,0.00,,,-99.99,,2013-06-19 03:42:00,
2013-06-18 23:52:00,55.0,54.0,29.98,North,359,0.0,0.0,96,0.00,,,-99.99,,2013-06-19 03:52:00,